RYR29AV LIRP-LMML

Flight info

Callsign RYR29AV
Flight time 1h 17m
Altitude 37000
Route DOCME M729 ELB DCT VELAD DCT TINTO DCT POKAV DCT GIANO DCT MARON DCT EKOLA L12 GZO
Aircraft B738/M-SDE2E3FGHIRWXY/LB1

Departure

Time 2026-04-29 08:34
Airport Pisa International Airport (LIRP)

Arrival

Time 2026-04-29 09:51
Airport Malta International Airport (LMML)
Time Latitude Longitude Altitude Speed Heading
2026-04-29 08:08 43.69667 10.39710 15 ft 0 kts 320°
2026-04-29 08:29 43.69674 10.39709 16 ft 2 kts
2026-04-29 08:29 43.69674 10.39728 17 ft 3 kts 96°
2026-04-29 08:30 43.69671 10.39767 14 ft 5 kts 96°
2026-04-29 08:30 43.69696 10.39909 14 ft 10 kts 97°
2026-04-29 08:30 43.69685 10.40001 16 ft 10 kts 99°
2026-04-29 08:31 43.69641 10.40057 14 ft 9 kts 173°
2026-04-29 08:31 43.69578 10.40068 15 ft 9 kts 172°
2026-04-29 08:31 43.69516 10.40080 15 ft 9 kts 172°
2026-04-29 08:31 43.69455 10.40092 20 ft 9 kts 171°
2026-04-29 08:32 43.69395 10.40105 21 ft 9 kts 167°
2026-04-29 08:32 43.69349 10.40169 20 ft 12 kts 127°
2026-04-29 08:32 43.69290 10.40277 18 ft 14 kts 127°
2026-04-29 08:32 43.69256 10.40321 19 ft 7 kts 174°
2026-04-29 08:33 43.69216 10.40292 19 ft 7 kts 217°
2026-04-29 08:33 43.69120 10.40193 19 ft 46 kts 217°
2026-04-29 08:33 43.68667 10.39727 17 ft 117 kts 216°
2026-04-29 08:33 43.67847 10.38904 112 ft 164 kts 214°
2026-04-29 08:34 43.66877 10.37897 652 ft 183 kts 216°
2026-04-29 08:34 43.65829 10.36834 1457 ft 187 kts 214°
2026-04-29 08:34 43.64812 10.35813 2560 ft 172 kts 216°
2026-04-29 08:34 43.63841 10.34903 3567 ft 173 kts 210°
2026-04-29 08:35 43.62800 10.33841 4007 ft 201 kts 217°
2026-04-29 08:35 43.61624 10.32616 4288 ft 222 kts 207°
2026-04-29 08:35 43.60123 10.31794 4582 ft 242 kts 198°
2026-04-29 08:35 43.58448 10.30996 4994 ft 263 kts 198°
2026-04-29 08:36 43.56708 10.30157 5914 ft 264 kts 199°
2026-04-29 08:36 43.54974 10.29309 6903 ft 265 kts 199°
2026-04-29 08:36 43.53224 10.28442 7708 ft 269 kts 200°
2026-04-29 08:36 43.51450 10.27559 8534 ft 272 kts 200°
2026-04-29 08:37 43.49658 10.26662 9377 ft 276 kts 201°
2026-04-29 08:37 43.47843 10.25751 10195 ft 279 kts 201°
2026-04-29 08:37 43.46008 10.24828 10937 ft 283 kts 201°
2026-04-29 08:37 43.44147 10.23890 11665 ft 287 kts 201°
2026-04-29 08:38 43.42256 10.22937 12384 ft 292 kts 201°
2026-04-29 08:38 43.40335 10.21969 13136 ft 296 kts 202°
2026-04-29 08:38 43.38406 10.20997 13856 ft 300 kts 202°
2026-04-29 08:38 43.36409 10.19991 14559 ft 303 kts 202°
2026-04-29 08:39 43.34446 10.19004 15287 ft 304 kts 201°
2026-04-29 08:39 43.32453 10.18001 16011 ft 306 kts 202°
2026-04-29 08:39 43.30444 10.16991 16714 ft 308 kts 201°
2026-04-29 08:39 43.28417 10.15973 17406 ft 311 kts 201°
2026-04-29 08:40 43.26377 10.14949 18110 ft 314 kts 201°
2026-04-29 08:40 43.24320 10.13917 18743 ft 316 kts 202°
2026-04-29 08:40 43.22245 10.12876 19317 ft 320 kts 202°
2026-04-29 08:40 43.20141 10.11822 19870 ft 324 kts 202°
2026-04-29 08:41 43.18016 10.10758 20438 ft 327 kts 202°
2026-04-29 08:41 43.15879 10.09747 20991 ft 332 kts 195°
2026-04-29 08:41 43.13543 10.09586 21502 ft 342 kts 175°
2026-04-29 08:41 43.11210 10.10599 21618 ft 365 kts 155°
2026-04-29 08:42 43.08920 10.12281 21760 ft 381 kts 153°
2026-04-29 08:42 43.06563 10.14113 21876 ft 397 kts 153°
2026-04-29 08:42 43.04136 10.16021 22138 ft 407 kts 152°
2026-04-29 08:42 43.01661 10.17953 22603 ft 411 kts 153°
2026-04-29 08:43 42.99167 10.19882 23144 ft 414 kts 153°
2026-04-29 08:43 42.96643 10.21814 23637 ft 417 kts 153°
2026-04-29 08:43 42.94098 10.23750 24046 ft 420 kts 153°
2026-04-29 08:43 42.91538 10.25690 24474 ft 422 kts 153°
2026-04-29 08:44 42.88961 10.27639 24895 ft 425 kts 153°
2026-04-29 08:44 42.86367 10.29599 25289 ft 427 kts 153°
2026-04-29 08:44 42.83762 10.31565 25701 ft 430 kts 153°
2026-04-29 08:44 42.81169 10.33522 26105 ft 432 kts 153°
2026-04-29 08:45 42.78525 10.35515 26492 ft 435 kts 153°
2026-04-29 08:45 42.75870 10.37514 26890 ft 437 kts 153°
2026-04-29 08:45 42.73196 10.39511 27254 ft 439 kts 155°
2026-04-29 08:45 42.70419 10.41254 27624 ft 440 kts 159°
2026-04-29 08:46 42.67576 10.42822 27988 ft 442 kts 161°
2026-04-29 08:46 42.64700 10.44342 28332 ft 445 kts 161°
2026-04-29 08:46 42.61808 10.45860 28678 ft 447 kts 161°
2026-04-29 08:46 42.58906 10.47397 29026 ft 449 kts 161°
2026-04-29 08:47 42.55988 10.48959 29365 ft 451 kts 161°
2026-04-29 08:47 42.53067 10.50537 29696 ft 453 kts 160°
2026-04-29 08:47 42.51125 10.51591 29931 ft 454 kts 160°
2026-04-29 08:47 42.48194 10.53185 30345 ft 453 kts 160°
2026-04-29 08:48 42.45278 10.54772 30750 ft 451 kts 160°
2026-04-29 08:48 42.42361 10.56359 31133 ft 450 kts 160°
2026-04-29 08:48 42.39453 10.57937 31466 ft 450 kts 160°
2026-04-29 08:48 42.36547 10.59512 31815 ft 450 kts 160°
2026-04-29 08:49 42.33643 10.61084 32186 ft 448 kts 160°
2026-04-29 08:49 42.30753 10.62647 32555 ft 447 kts 160°
2026-04-29 08:49 42.27865 10.64208 32888 ft 447 kts 160°
2026-04-29 08:49 42.24977 10.65766 33224 ft 446 kts 160°
2026-04-29 08:50 42.22090 10.67322 33570 ft 445 kts 160°
2026-04-29 08:50 42.19221 10.68868 33918 ft 444 kts 160°
2026-04-29 08:50 42.16388 10.70392 34215 ft 444 kts 160°
2026-04-29 08:50 42.13516 10.71936 34499 ft 442 kts 160°
2026-04-29 08:51 42.10659 10.73471 34809 ft 441 kts 160°
2026-04-29 08:51 42.07816 10.74997 35100 ft 439 kts 160°
2026-04-29 08:51 42.04977 10.76518 35364 ft 439 kts 160°
2026-04-29 08:51 42.02142 10.78034 35622 ft 438 kts 160°
2026-04-29 08:52 41.99310 10.79545 35887 ft 437 kts 160°
2026-04-29 08:52 41.96490 10.81048 36165 ft 436 kts 160°
2026-04-29 08:52 41.93672 10.82549 36413 ft 435 kts 160°
2026-04-29 08:52 41.90863 10.84044 36647 ft 434 kts 160°
2026-04-29 08:53 41.88057 10.85536 36902 ft 433 kts 160°
2026-04-29 08:53 41.85257 10.87024 37070 ft 434 kts 160°
2026-04-29 08:53 41.82433 10.88522 37053 ft 438 kts 160°
2026-04-29 08:54 41.76715 10.91552 37067 ft 445 kts 160°
2026-04-29 08:54 41.70926 10.94616 37058 ft 449 kts 160°
2026-04-29 08:55 41.65092 10.97698 37055 ft 451 kts 160°
2026-04-29 08:55 41.59255 11.00776 37054 ft 450 kts 160°
2026-04-29 08:56 41.53529 11.03791 37040 ft 441 kts 160°
2026-04-29 08:56 41.47821 11.06787 37058 ft 440 kts 160°
2026-04-29 08:57 41.42112 11.09783 37055 ft 441 kts 160°
2026-04-29 08:57 41.36400 11.12777 37057 ft 441 kts 160°
2026-04-29 08:58 41.30686 11.15768 37059 ft 442 kts 160°
2026-04-29 08:58 41.24957 11.18761 37057 ft 443 kts 160°
2026-04-29 08:59 41.19223 11.21751 37057 ft 443 kts 160°
2026-04-29 08:59 41.13472 11.24745 37056 ft 444 kts 160°
2026-04-29 09:00 41.07740 11.27722 37056 ft 445 kts 161°
2026-04-29 09:00 41.01970 11.30714 37057 ft 445 kts 161°
2026-04-29 09:01 40.96196 11.33703 37055 ft 446 kts 160°
2026-04-29 09:01 40.90411 11.36693 37060 ft 446 kts 161°
2026-04-29 09:02 40.84631 11.39673 37053 ft 446 kts 161°
2026-04-29 09:02 40.78870 11.42746 37058 ft 446 kts 159°
2026-04-29 09:03 40.73132 11.45911 37065 ft 446 kts 159°
2026-04-29 09:03 40.67430 11.49050 37058 ft 447 kts 159°
2026-04-29 09:04 40.61688 11.52190 37057 ft 447 kts 159°
2026-04-29 09:04 40.55941 11.55318 37060 ft 447 kts 160°
2026-04-29 09:05 40.50171 11.58451 37060 ft 448 kts 160°
2026-04-29 09:05 40.44412 11.61573 37061 ft 448 kts 160°
2026-04-29 09:06 40.38645 11.64693 37057 ft 449 kts 160°
2026-04-29 09:06 40.32896 11.67798 37055 ft 449 kts 160°
2026-04-29 09:07 40.27109 11.70918 37061 ft 450 kts 160°
2026-04-29 09:07 40.21312 11.74037 37058 ft 451 kts 160°
2026-04-29 09:08 40.15505 11.77156 37060 ft 452 kts 160°
2026-04-29 09:08 40.09683 11.80278 37054 ft 453 kts 160°
2026-04-29 09:09 40.03850 11.83399 37053 ft 453 kts 160°
2026-04-29 09:09 39.98004 11.86522 37063 ft 454 kts 160°
2026-04-29 09:10 39.92142 11.89647 37062 ft 455 kts 161°
2026-04-29 09:10 39.86277 11.92768 37052 ft 456 kts 161°
2026-04-29 09:11 39.80438 11.95870 37056 ft 456 kts 161°
2026-04-29 09:11 39.74550 11.98992 37053 ft 457 kts 161°
2026-04-29 09:12 39.68658 12.02110 37059 ft 457 kts 161°
2026-04-29 09:12 39.62755 12.05228 37058 ft 458 kts 161°
2026-04-29 09:13 39.56846 12.08344 37061 ft 459 kts 161°
2026-04-29 09:13 39.50932 12.11456 37053 ft 459 kts 161°
2026-04-29 09:14 39.45011 12.14567 37054 ft 460 kts 162°
2026-04-29 09:14 39.39120 12.17656 37052 ft 460 kts 162°
2026-04-29 09:15 39.33184 12.20763 37047 ft 460 kts 162°
2026-04-29 09:15 39.27238 12.23870 37059 ft 461 kts 162°
2026-04-29 09:16 39.21294 12.26970 37055 ft 461 kts 162°
2026-04-29 09:16 39.15344 12.30067 37053 ft 461 kts 162°
2026-04-29 09:17 39.09388 12.33162 37055 ft 461 kts 162°
2026-04-29 09:17 39.03427 12.36254 37055 ft 462 kts 162°
2026-04-29 09:18 38.97471 12.39338 37057 ft 462 kts 162°
2026-04-29 09:18 38.91541 12.42404 37057 ft 462 kts 163°
2026-04-29 09:19 38.85601 12.45590 37051 ft 465 kts 158°
2026-04-29 09:19 38.79893 12.49554 37056 ft 467 kts 155°
2026-04-29 09:20 38.74227 12.53685 37055 ft 468 kts 155°
2026-04-29 09:20 38.68559 12.57761 37054 ft 468 kts 155°
2026-04-29 09:21 38.62882 12.61781 37055 ft 468 kts 155°
2026-04-29 09:21 38.57170 12.65799 37050 ft 469 kts 155°
2026-04-29 09:22 38.51451 12.69812 37055 ft 469 kts 155°
2026-04-29 09:22 38.45727 12.73823 37046 ft 469 kts 156°
2026-04-29 09:23 38.39990 12.77838 37056 ft 470 kts 156°
2026-04-29 09:23 38.34260 12.81841 37056 ft 470 kts 156°
2026-04-29 09:24 38.28561 12.85815 37064 ft 470 kts 156°
2026-04-29 09:24 38.22830 12.89804 37066 ft 470 kts 156°
2026-04-29 09:25 38.17089 12.93793 37069 ft 469 kts 156°
2026-04-29 09:25 38.11359 12.97766 37074 ft 469 kts 156°
2026-04-29 09:26 38.05626 13.01736 37072 ft 469 kts 156°
2026-04-29 09:26 37.99895 13.05696 37070 ft 469 kts 156°
2026-04-29 09:27 37.94163 13.09650 37065 ft 469 kts 156°
2026-04-29 09:27 37.88432 13.13596 37057 ft 469 kts 156°
2026-04-29 09:28 37.82698 13.17537 37048 ft 469 kts 156°
2026-04-29 09:28 37.76968 13.21468 37055 ft 469 kts 156°
2026-04-29 09:29 37.71235 13.25395 37069 ft 469 kts 157°
2026-04-29 09:29 37.62618 13.31283 37066 ft 470 kts 157°
2026-04-29 09:30 37.56833 13.35225 36585 ft 477 kts 157°
2026-04-29 09:30 37.53914 13.37212 36061 ft 475 kts 156°
2026-04-29 09:30 37.51006 13.39191 35453 ft 475 kts 156°
2026-04-29 09:31 37.48096 13.41171 34829 ft 476 kts 156°
2026-04-29 09:31 37.45175 13.43155 34200 ft 477 kts 155°
2026-04-29 09:31 37.42254 13.45137 33479 ft 478 kts 155°
2026-04-29 09:31 37.39322 13.47125 32750 ft 479 kts 155°
2026-04-29 09:32 37.36392 13.49110 32047 ft 479 kts 155°
2026-04-29 09:32 37.33495 13.51071 31347 ft 479 kts 155°
2026-04-29 09:32 37.30559 13.53057 30644 ft 479 kts 155°
2026-04-29 09:32 37.27636 13.55032 30139 ft 475 kts 155°
2026-04-29 09:33 37.24739 13.56989 29538 ft 470 kts 155°
2026-04-29 09:33 37.21869 13.58927 29008 ft 464 kts 155°
2026-04-29 09:33 37.19047 13.60829 28482 ft 458 kts 155°
2026-04-29 09:33 37.16249 13.62713 27962 ft 453 kts 155°
2026-04-29 09:34 37.14415 13.63946 27610 ft 450 kts 155°
2026-04-29 09:34 37.11653 13.65744 27104 ft 443 kts 159°
2026-04-29 09:34 37.08845 13.67281 26605 ft 438 kts 161°
2026-04-29 09:34 37.06033 13.68717 26094 ft 434 kts 161°
2026-04-29 09:35 37.03241 13.70111 25599 ft 430 kts 161°
2026-04-29 09:35 37.00473 13.71492 25105 ft 426 kts 161°
2026-04-29 09:35 36.97729 13.72873 24622 ft 423 kts 161°
2026-04-29 09:35 36.95009 13.74252 24132 ft 420 kts 161°
2026-04-29 09:36 36.92309 13.75630 23643 ft 418 kts 161°
2026-04-29 09:36 36.89630 13.77000 23065 ft 415 kts 160°
2026-04-29 09:36 36.86999 13.78348 22548 ft 411 kts 160°
2026-04-29 09:36 36.84365 13.79698 22076 ft 407 kts 160°
2026-04-29 09:37 36.81758 13.81032 21575 ft 403 kts 160°
2026-04-29 09:37 36.79178 13.82352 21092 ft 399 kts 161°
2026-04-29 09:37 36.76613 13.83662 20621 ft 396 kts 161°
2026-04-29 09:37 36.74075 13.84957 20148 ft 393 kts 161°
2026-04-29 09:38 36.71550 13.86245 19689 ft 390 kts 161°
2026-04-29 09:38 36.69050 13.87519 19228 ft 387 kts 161°
2026-04-29 09:38 36.66564 13.88785 18770 ft 385 kts 161°
2026-04-29 09:38 36.64089 13.90044 18294 ft 383 kts 161°
2026-04-29 09:39 36.61620 13.91300 17755 ft 381 kts 161°
2026-04-29 09:39 36.59171 13.92545 17276 ft 378 kts 161°
2026-04-29 09:39 36.56736 13.93782 16804 ft 375 kts 161°
2026-04-29 09:39 36.54362 13.94988 16355 ft 372 kts 161°
2026-04-29 09:40 36.51970 13.96201 15909 ft 369 kts 161°
2026-04-29 09:40 36.49590 13.97407 15455 ft 367 kts 161°
2026-04-29 09:40 36.47237 13.98598 15010 ft 364 kts 161°
2026-04-29 09:40 36.44896 13.99782 14563 ft 362 kts 161°
2026-04-29 09:41 36.42568 14.00958 14125 ft 360 kts 161°
2026-04-29 09:41 36.40248 14.02129 13616 ft 359 kts 160°
2026-04-29 09:41 36.37942 14.03294 13133 ft 357 kts 160°
2026-04-29 09:41 36.35680 14.04435 12678 ft 354 kts 160°
2026-04-29 09:42 36.33405 14.05583 12214 ft 352 kts 160°
2026-04-29 09:42 36.31144 14.06723 11765 ft 349 kts 160°
2026-04-29 09:42 36.28903 14.07851 11323 ft 346 kts 160°
2026-04-29 09:42 36.26676 14.08973 10908 ft 343 kts 160°
2026-04-29 09:43 36.24499 14.10069 10749 ft 332 kts 160°
2026-04-29 09:43 36.22387 14.11132 10593 ft 322 kts 160°
2026-04-29 09:43 36.20343 14.12160 10451 ft 312 kts 160°
2026-04-29 09:43 36.18358 14.13157 10315 ft 303 kts 161°
2026-04-29 09:44 36.16435 14.14122 10179 ft 294 kts 160°
2026-04-29 09:44 36.14563 14.15061 10054 ft 286 kts 160°
2026-04-29 09:44 36.12725 14.15982 9746 ft 284 kts 160°
2026-04-29 09:44 36.10897 14.16897 9459 ft 282 kts 160°
2026-04-29 09:45 36.09089 14.17803 9167 ft 280 kts 160°
2026-04-29 09:45 36.07287 14.18704 8733 ft 280 kts 159°
2026-04-29 09:45 36.05464 14.19616 8029 ft 290 kts 159°
2026-04-29 09:45 36.03590 14.20623 7310 ft 298 kts 148°
2026-04-29 09:46 36.02153 14.22464 6623 ft 304 kts 117°
2026-04-29 09:46 36.01465 14.24937 5894 ft 306 kts 104°
2026-04-29 09:46 36.00948 14.27495 5218 ft 305 kts 107°
2026-04-29 09:46 35.99991 14.29815 4491 ft 304 kts 126°
2026-04-29 09:47 35.98635 14.31799 3868 ft 300 kts 133°
2026-04-29 09:47 35.97202 14.33554 3503 ft 279 kts 135°
2026-04-29 09:47 35.95854 14.35186 3087 ft 263 kts 135°
2026-04-29 09:47 35.94598 14.36742 2739 ft 247 kts 135°
2026-04-29 09:48 35.93433 14.38194 2437 ft 229 kts 136°
2026-04-29 09:48 35.92337 14.39560 2144 ft 213 kts 135°
2026-04-29 09:48 35.91330 14.40806 1865 ft 197 kts 136°
2026-04-29 09:48 35.90404 14.41957 1606 ft 182 kts 135°
2026-04-29 09:49 35.89546 14.43028 1351 ft 169 kts 134°
2026-04-29 09:49 35.88756 14.44008 1149 ft 154 kts 134°
2026-04-29 09:49 35.88023 14.44918 966 ft 144 kts 133°
2026-04-29 09:49 35.87341 14.45768 753 ft 137 kts 132°
2026-04-29 09:50 35.86694 14.46576 592 ft 133 kts 131°
2026-04-29 09:50 35.86053 14.47399 395 ft 130 kts 133°
2026-04-29 09:50 35.85421 14.48157 272 ft 122 kts 133°
2026-04-29 09:50 35.84974 14.48712 261 ft 63 kts 134°
2026-04-29 09:51 35.84678 14.49078 258 ft 49 kts 135°
2026-04-29 09:51 35.84518 14.49282 258 ft 25 kts 127°
2026-04-29 09:51 35.84455 14.49441 258 ft 12 kts 104°
2026-04-29 09:51 35.84450 14.49542 258 ft 12 kts 64°
2026-04-29 09:52 35.84521 14.49563 258 ft 12 kts 329°
2026-04-29 09:52 35.84594 14.49541 258 ft 11 kts 30°
2026-04-29 09:52 35.84644 14.49580 258 ft 8 kts
2026-04-29 09:52 35.84696 14.49574 258 ft 7 kts 359°
2026-04-29 09:53 35.84747 14.49574 258 ft 7 kts 360°
2026-04-29 09:53 35.84764 14.49574 258 ft 0 kts 360°